sat.trackr.live / text

‹ back to catalog

STARLINK-6276

NORAD 57355 · 2023-099AD

PAYLOAD ACTIVE UNKNOWN

§ Identity

Operator
Country
US
Launch date
2023-07-16
Launch site
AFETR
Launch vehicle
Mass (kg)
RCS (m²)

Purposes: comms

External: N2YO · Heavens-Above · Gunter

§ Orbital elements

Epoch: 2026-05-25T02:47:27.983040Z

Period
94.27 min
Inclination
43.0028°
Eccentricity
0.0001423
Mean motion
15.27577515 rev/d
Perigee alt
482.1 km
Apogee alt
484.0 km
Semi-major
6,861.2 km
B*
-7.5893e-6
RAAN
170.4157°
Arg perigee
283.5742°
Mean anomaly
76.4951°
Rev number
15,788

§ Raw data

STARLINK-62761 57355U 23099AD  26145.11629610 -.00000471  00000+0 -75893-5 0  99922 57355  43.0028 170.4157 0001423 283.5742  76.4951 15.27577515157886

JSON: /api/v1/satellites/57355 · /tle

For live sub-satellite position, see the globe view (requires WebGL).

§ Visibility from observer

Set your observer location to see the next 7 days of passes ≥ 10°. The values pass through the URL so the page stays shareable.

No JS? Fill the form by hand. The geolocation button needs JavaScript.